Location: Zagreb
(45.8000°N, 16.0000°E)
Time: 12:41:13
(UTC+01:00)

Vanguard 1 Rocket - Pass Details

Date: 03 October 2020
Orbit: 656 x 4221 km, 34.3° (Epoch: 28 October)

Event Time Altitude Azimuth Distance (km) Brightness Sun altitude
Rises 17:08:37 0° 225° (SW) 4,285 12.1 13.3°
Reaches altitude 10° 17:11:11 10° 217° (SW) 3,642 11.6 12.9°
Maximum altitude 17:20:13 40° 151° (SSE) 2,999 10.1 11.4°
Drops below altitude 10° 17:36:27 10° 91° (E) 6,440 11.2 8.7°
Sets 17:42:54 0° 86° (E) 7,919 11.5 7.6°
